Hourly Data Report for February 05, 2002

SHERBROOKE A
QUEBEC

45°26'00.000" N
71°41'00.000" W
241.40 m
7028124
71610
YSC

Download Data

Hourly Data (February 2002)
Hourly Data Report for February 5, 2002
TIME
LST
Temp Definition
°C
Dew Point Definition
°C
Rel Hum Definition
%
Precip. Amount Definition
mm

Wind Dir Definition
10's deg

Wind Spd Definition
km/h
Visibility Definition
km
Stn Press Definition
kPa
Hmdx Definition


Wind Chill Definition


Weather Definition


00:00 -13.5 -17.3 73   29 17 6.4 98.56   -22 Snow
01:00 -14.5 -18.2 73   28 9 8.0 98.61   -20 Snow
02:00 -14.4 -17.9 75   28 17 3.9 98.67   -23 Snow
03:00 -14.9 -18.3 75   27 15 6.4 98.69   -23 Snow
04:00 -15.7 -19.7 71   29 22 15.0 98.75   -25  
05:00 -15.4 -19.2 73   26 9 5.6 98.82   -21  
06:00 -14.9 -18.5 74   25 7 4.0 98.84   -20 Snow
07:00 -14.7 -18.5 73   24 11 11.3 98.83   -21  
08:00 -15.1 -18.9 73   27 19 3.2 98.84   -24 Snow Showers
09:00 -14.7 -18.7 72   27 17 3.2 98.83   -23 Snow Showers
10:00 -15.6 -19.8 70   26 22 24.1 98.81   -25 Snow Showers
11:00 -14.8 -20.0 65   27 15 24.1 98.73   -23 Mostly Cloudy
12:00 -14.1 -20.2 60   24 17 24.1 98.59   -22 Mainly Clear
13:00 -13.1 -20.0 56   22 13 24.1 98.45   -20 Mostly Cloudy
14:00 -12.2 -21.2 47   22 17 24.1 98.30   -20 Mostly Cloudy
15:00 -11.7 -20.9 46   23 13 24.1 98.23   -18 Mostly Cloudy
16:00 -11.6 -19.8 51   21 9 4.8 98.16   -17 Snow Showers
17:00 -12.0 -16.2 71   18 6 3.2 98.10   -16 Snow Showers
18:00 -12.2 -15.7 75     0 6.4 98.11     Snow
19:00 -11.1 -14.2 78   27 11 1.1 98.17   -17 Snow
20:00 -12.5 -16.4 73   28 28 4.8 98.31   -22 Snow
21:00 -13.9 -18.4 69   28 19 15.0 98.40   -23  
22:00 -14.8 -19.3 69   27 13 15.0 98.45   -22  
23:00 -18.5 -22.4 71   20 4 15.0 98.48   -22  

Notes on Data Quality.

Legend

  • E = Estimated
  • M = Missing
  • NA = Not Available*
  • [empty] = Indicates an unobserved value
Date modified: